Miscellaneous Local Product
Issued by NWS Hastings, NE

Home | Current Version | Previous Version | Graphics & Text | Print | Product List | Glossary On
Versions: 1 2 3 4 5 6 7 8 9 10 11 12 13 14 15 16 17 18 19 20 21 22 23 24 25 26 27 28 29 30 31 32 33 34 35 36 37 38 39 40 41 42 43 44 45 46 47 48 49 50
309
AXUS43 KGID 201102
MISGRI

GID CWA HOURLY WEATHER ROUNDUP
NATIONAL WEATHER SERVICE HASTINGS NE
600 AM CDT FRI APR 20 2018

NOTE: "FAIR" INDICATES FEW OR NO CLOUDS BELOW 12,000 FEET WITH NO
SIGNIFICANT WEATHER AND/OR OBSTRUCTIONS TO VISIBILITY.

...SOUTH CENTRAL NEBRASKA...

CITY           SKY/WX    TMP DP  RH WIND       PRES   REMARKS
GRAND ISLAND   CLOUDY    38  28  67 SE8       30.33S WCI  32
KEARNEY        CLOUDY    35  27  72 SE8       30.31S WCI  29
HASTINGS       CLOUDY    37  27  67 SE6       30.32F WCI  32
ORD            MOCLDY    32  28  85 E5        30.30F WCI  27
YORK             N/A     36  28  75 CALM      30.36R
AURORA         CLOUDY    32  27  81 SE7       30.34S WCI  26
LEXINGTON      MOCLDY    40  29  64 SE8       30.27S
HOLDREGE       CLOUDY    38  30  73 SE9       30.28S WCI  31
HEBRON         CLOUDY    37  29  73 SE5       30.36R WCI  33

...NEBRASKA PANHANDLE...

CITY           SKY/WX    TMP DP  RH WIND       PRES   REMARKS
CHADRON        CLOUDY    44  28  53 SE22G32   30.07F
ALLIANCE       CLOUDY    40  28  62 SE30G38   30.07F WCI  28
SCOTTSBLUFF    CLOUDY    40  28  62 SE22G29   30.06F WCI  30
SIDNEY         MOCLDY    37  27  67 SE29G37   30.06F WCI  25

...WESTERN AND NORTH CENTRAL NEBRASKA...

CITY           SKY/WX    TMP DP  RH WIND       PRES   REMARKS
VALENTINE      CLOUDY    33  28  81 E8        30.23F WCI  26
AINSWORTH      CLOUDY    37  29  72 S8        30.25S WCI  31
ONEILL         CLOUDY    37  32  80 SE8       30.32S WCI  31
BROKEN BOW     PTCLDY    34  26  72 SE6       30.27S WCI  29
IMPERIAL       CLOUDY    41  28  60 E17       30.15F
NORTH PLATTE   CLOUDY    44  28  53 S10       30.21F
MCCOOK         CLOUDY    40  27  59 E6        30.22S

...EASTERN NEBRASKA...

CITY           SKY/WX    TMP DP  RH WIND       PRES   REMARKS
NORFOLK        PTCLDY    32  28  85 SE7       30.36S WCI  26
SO SIOUX CITY  CLOUDY    31  25  78 E8        30.41F WCI  23
TEKAMAH        CLOUDY    28  25  88 SW3       30.42S
COLUMBUS       CLOUDY    33  28  81 E7        30.38S WCI  27
ALBION         CLOUDY    35  30  82 SE7       30.34F WCI  29
OMAHA EPPLEY   CLOUDY    35  25  66 SE7       30.42S WCI  29
OFFUTT AFB     PTCLDY    29  24  81 NE6       30.41R WCI  23
MILLARD        CLOUDY    37  28  70 CALM      30.41S
LINCOLN        PTCLDY    36  27  69 CALM      30.40S
NEBRASKA CITY  CLOUDY    35  28  76 CALM      30.41R
BEATRICE       CLOUDY    39  30  71 SE6       30.38S WCI  34
FALLS CITY     NOT AVBL

...NORTHERN KANSAS...

CITY           SKY/WX    TMP DP  RH WIND       PRES   REMARKS
GOODLAND       CLOUDY    40  28  62 SE23G32   30.12F WCI  30
HILL CITY      CLOUDY    44  28  53 SE14      30.25F
NORTON         PTSUNNY   39  28  65 SE10      30.24F WCI  32
PHILLIPSBURG   CLEAR     41  28  60 SE7       30.29S
SMITH CENTER   CLEAR     39  28  65 E9        30.31F WCI  33
BELOIT         CLEAR     36  25  64 CALM      30.34S
HAYS           CLOUDY    43  28  55 SE10      30.28F
RUSSELL        CLOUDY    44  31  60 SE13      30.29S
CONCORDIA      MOCLDY    37  29  72 SE7       30.34S WCI  32
SALINA         CLOUDY    40  31  70 SE7       30.35S
TOPEKA         CLOUDY    34  29  82 CALM      30.41R



USA.gov is the U.S. government's official web portal to all federal, state and local government web resources and services.